This demonstration page uses our WeatherBlox Daily Observations layout. Learn more.

Left ArrowRight Arrow

Hourly Observations for November 16, 2016

Temp ( °F °C ) Dew Point ( °F °C ) Humidity (%) Winds ( mph kmh ) Pressure ( in mb ) Visibility ( mi km ) Precip ( " mm )
12:15 am 00:15 Clear 41 5.1 34 1 75 75 ESE 9 15 30.00 1016 10 16 N/A
12:35 am 00:35 Clear 42 5.7 35 1.6 75 75 SE 10 17 29.97 1015 10 16 N/A
12:55 am 00:55 Clear 43 6 35 1.4 73 73 SE 10 17 29.94 1014 10 16 N/A
1:15 am 01:15 Clear 42 5.6 34 1.2 74 74 SE 9 15 29.94 1014 10 16 N/A
1:35 am 01:35 Clear 45 7.2 35 1.8 69 69 SE 10 17 29.94 1014 10 16 N/A
1:55 am 01:55 Clear 46 8 36 2.1 67 67 SE 13 20 29.94 1014 10 16 N/A
2:15 am 02:15 Clear 46 8 36 2.1 67 67 SE 12 19 29.94 1014 10 16 N/A
2:35 am 02:35 Clear 44 6.9 36 2 71 71 SSE 10 17 29.94 1014 10 16 N/A
2:55 am 02:55 Clear 44 6.6 36 2 73 73 SSE 9 15 29.94 1014 10 16 N/A
3:15 am 03:15 Clear 42 5.8 35 1.6 75 75 SSE 9 15 29.91 1013 10 16 N/A
3:35 am 03:35 Clear 42 5.8 35 1.6 75 75 SSE 12 19 29.91 1013 10 16 N/A
3:55 am 03:55 Clear 42 5.8 35 1.8 76 76 SSE 9 15 29.88 1012 10 16 N/A
4:15 am 04:15 Clear 42 5.6 35 1.8 77 77 SE 12 19 29.88 1012 10 16 N/A
4:35 am 04:35 Clear 43 6.1 36 2.1 76 76 SE 10 17 29.85 1011 10 16 N/A
4:55 am 04:55 Clear 42 5.7 35 1.9 77 77 SSE 12 19 29.85 1011 10 16 N/A
5:15 am 05:15 Clear 42 5.5 35 1.8 77 77 SSE 9 15 29.85 1011 10 16 N/A
5:35 am 05:35 Clear 42 5.7 35 1.9 77 77 SSE 12 19 29.85 1011 10 16 N/A
5:55 am 05:55 Clear 44 6.5 36 2.2 74 74 SSE 12 19 29.85 1011 10 16 N/A
6:15 am 06:15 Clear 43 6.1 36 2 75 75 SSE 12 19 29.83 1010 10 16 N/A
6:35 am 06:35 Clear 42 5.4 35 1.8 78 78 SSE 9 15 29.83 1010 10 16 N/A
6:55 am 06:55 Clear 41 5.1 35 1.9 80 80 SSE 10 17 29.83 1010 10 16 N/A
7:15 am 07:15 Clear 42 5.3 36 2.2 81 81 SSE 13 20 29.83 1010 10 16 N/A
7:35 am 07:35 Sunny 43 5.9 36 2.4 78 78 SSE 10 17 29.83 1010 10 16 N/A
7:55 am 07:55 Sunny 45 7.1 37 2.6 73 73 S 10 17 29.83 1010 10 16 N/A
8:15 am 08:15 Sunny 45 7.2 37 2.7 73 73 S 7 11 29.80 1009 10 16 N/A
8:35 am 08:35 Sunny 47 8.2 37 3 70 70 S 14 22 29.80 1009 10 16 N/A
8:55 am 08:55 Sunny 49 9.6 38 3.3 65 65 SSE 14 22 29.77 1008 10 16 N/A
9:15 am 09:15 Sunny 51 10.8 38 3.3 60 60 S 15 24 29.74 1007 10 16 N/A
9:35 am 09:35 Sunny 53 11.8 38 3.4 57 57 S 13 20 29.71 1006 10 16 N/A
9:55 am 09:55 Sunny 55 12.5 38 3.5 55 55 S 14 22 29.71 1006 10 16 N/A
10:15 am 10:15 Sunny 56 13.6 38 3.1 49 49 S 16 26 29.68 1005 10 16 N/A
10:35 am 10:35 Sunny 57 13.7 38 3.2 49 49 S 14 22 29.65 1004 10 16 N/A
10:55 am 10:55 Sunny 61 16.3 37 2.9 41 41 S 5 7 29.68 1005 10 16 N/A
11:15 am 11:15 Sunny 65 18.1 35 1.5 33 33 S 9 15 29.62 1003 10 16 N/A
11:35 am 11:35 Sunny 66 19.1 35 1.6 31 31 SSW 13 20 29.62 1003 10 16 N/A
11:55 am 11:55 Sunny 68 20.1 35 1.5 29 29 S 12 19 29.56 1001 10 16 N/A
12:15 pm 12:15 Sunny 68 20.1 35 1.5 29 29 S 14 22 29.53 1000 10 16 N/A
12:35 pm 12:35 Sunny 70 21 35 1.4 27 27 SSW 12 19 29.53 1000 10 16 N/A
12:55 pm 12:55 Sunny 70 21 36 2 29 29 S 10 17 29.50 999 10 16 N/A
1:15 pm 13:15 Sunny 73 22.7 36 2 26 26 S 12 19 29.50 999 10 16 N/A
1:35 pm 13:35 Sunny 76 24.7 33 0.8 21 21 S 15 24 29.44 997 10 16 N/A
1:55 pm 13:55 Sunny 78 25.4 31 -0.4 18 18 SSW 15 24 29.44 997 10 16 N/A
2:15 pm 14:15 Sunny 77 25 32 0.2 20 20 S 14 22 29.44 997 10 16 N/A
2:35 pm 14:35 Sunny 78 25.3 32 -0.2 19 19 S 14 22 29.44 997 10 16 N/A
2:55 pm 14:55 Sunny 78 25.3 33 0.4 20 20 S 17 28 29.41 996 10 16 N/A
3:15 pm 15:15 Sunny 77 25 32 undefined 19 19 S 16 26 29.41 996 10 16 N/A
3:35 pm 15:35 Sunny 77 25 32 undefined 19 19 S 17 28 29.41 996 10 16 N/A
3:55 pm 15:55 Sunny 76 24.3 32 0.2 20 20 S 9 15 29.41 996 10 16 N/A
4:15 pm 16:15 Sunny 74 23.2 34 1.1 23 23 SSE 7 11 29.41 996 10 16 N/A
4:35 pm 16:35 Sunny 70 20.9 35 1.6 28 28 SE 6 9 29.44 997 10 16 N/A
4:55 pm 16:55 Sunny 63 17.3 36 2 36 36 ESE 5 7 29.47 998 10 16 N/A
5:15 pm 17:15 Sunny 62 16.7 36 2 37 37 SE 6 9 29.44 997 10 16 N/A
5:35 pm 17:35 Clear 64 17.5 35 1.8 35 35 SSE 8 13 29.44 997 10 16 N/A
5:55 pm 17:55 Clear 61 15.9 36 2 39 39 SSE 8 13 29.44 997 10 16 N/A
6:15 pm 18:15 Clear 60 15.7 36 2 40 40 SSE 9 15 29.44 997 10 16 N/A
6:35 pm 18:35 Clear 60 15.4 35 1.9 40 40 SSE 7 11 29.44 997 10 16 N/A
6:55 pm 18:55 Clear 60 15.4 35 1.5 39 39 SSE 6 9 29.44 997 10 16 N/A
7:15 pm 19:15 Clear 58 14.4 35 1.7 42 42 S 3 6 29.47 998 10 16 N/A
7:35 pm 19:35 Clear 58 14.3 35 1.7 43 43 S 5 7 29.47 998 10 16 N/A
7:55 pm 19:55 Clear 59 14.8 36 2 42 42 S 3 6 29.44 997 10 16 N/A
8:15 pm 20:15 Clear 57 14 36 2.2 45 45 S 5 7 29.47 998 10 16 N/A
8:35 pm 20:35 Clear 54 12 36 2.2 51 51 N N/A 29.47 998 10 16 N/A
8:55 pm 20:55 Clear 53 11.9 37 2.6 53 53 NNW 7 11 29.47 998 10 16 N/A
9:15 pm 21:15 Clear 51 10.6 37 2.5 58 58 NNW 6 9 29.50 999 10 16 N/A
9:35 pm 21:35 Clear 49 9.7 37 2.6 62 62 N 9 15 29.50 999 10 16 N/A
9:55 pm 21:55 Clear 48 9 37 2.7 65 65 N 10 17 29.50 999 10 16 N/A
10:15 pm 22:15 Clear 52 11 37 2.8 57 57 N 16 26 29.50 999 10 16 N/A
10:35 pm 22:35 Clear 50 10.2 36 2 57 57 N 14 22 29.53 1000 10 16 N/A
10:55 pm 22:55 Clear 49 9.5 35 1.6 58 58 NNE 13 20 29.50 999 10 16 N/A
11:15 pm 23:15 Clear 49 9.2 34 1 57 57 N 13 20 29.53 1000 10 16 N/A
11:35 pm 23:35 Clear 47 8.5 33 0.7 58 58 NNE 10 17 29.53 1000 10 16 N/A
11:55 pm 23:55 Clear 46 8 33 0.5 59 59 NNE 12 19 29.56 1001 10 16 N/A

Powered by AerisWeather